Location: Albany
(35.0000°S, 118.0000°E)
Time: 07:21:39
(UTC-04:00)

Cosmos 1346 Rocket - Visible Passes

Search period start: 20 October 2014 00:00
Search period end: 30 October 2014 00:00
Orbit: 529 x 570 km, 81.2° (Epoch: 19 October)

Date Brightness Start Highest point End Pass type
(mag) Time Alt. Az. Time Alt. Az. Time Alt. Az.
20 Oct 4.6 08:43:43 25° SSE 08:43:43 25° SSE 08:45:32 10° SSE visible
21 Oct 3.8 08:38:28 39° SSE 08:38:28 39° SSE 08:41:09 10° S visible
22 Oct 3.0 08:33:04 70° S 08:33:04 70° S 08:36:45 10° S visible
23 Oct 2.9 08:27:28 57° NNW 08:28:12 77° W 08:32:20 10° S visible
24 Oct 3.1 08:21:37 26° NNW 08:23:47 67° W 08:27:54 10° S visible
25 Oct 3.4 08:15:23 10° NNW 08:19:22 59° W 08:23:28 10° S visible
26 Oct 3.6 08:11:00 10° NNW 08:14:56 52° W 08:19:00 10° S visible
27 Oct 3.9 08:06:37 10° NNW 08:10:30 46° W 08:14:31 10° S visible
28 Oct 4.2 08:02:14 10° NNW 08:06:04 41° WSW 08:10:01 10° S visible
29 Oct 4.5 07:57:52 10° NW 08:01:38 36° WSW 08:05:30 10° S visible
